Date String (YYYY-MM-DD hh:mm:ss) UTC,Instrument flags,Ambient pressure (hPa),Sample flow (lpm),Bypass flow (lpm),Sample temperature (°C),Ambient temperature (°C),ASC tube jacket temperature (°C),LED temperature (°C),Box temperature (°C),Sample RH (%),Span deviation,Mass concentration (μg/m³),Mass concentration (μg/m³),Mass concentration (μg/m³)
DateTimeUTC,F1_M11,P_M11,Q1_M11,Q2_M11,T1_M11,T2_M11,T3_M11,T4_M11,T5_M11,U1_M11,ZSPAN_M11,X0_M11,X2_M11,X1_M11
2023-01-01 18:00:00,,0818.9,5.00,0.00,22.9,21.7,00.0,31.7,24.7,15.0,-000.7,0025.21,0020.43,0019.97
2023-01-01 18:01:00,,0818.9,5.05,0.00,23.0,21.7,00.0,31.7,24.7,15.0,-000.8,0025.22,0020.45,0019.98
2023-01-01 18:02:00,,0818.8,4.99,0.00,23.0,21.7,00.0,31.7,24.7,14.9,-000.8,0025.50,0020.42,0019.96
2023-01-01 18:03:00,,0818.9,4.98,0.00,23.0,21.7,00.0,31.7,24.8,14.9,-000.5,0025.65,0020.40,0019.94
2023-01-01 18:04:00,,0818.9,4.99,0.00,23.0,21.7,00.0,31.7,24.8,14.9,-000.6,0025.82,0020.36,0019.86
2023-01-01 18:05:00,,0818.8,5.10,0.00,23.0,21.7,00.0,31.8,24.8,14.9,-000.9,0025.19,0020.28,0019.78
2023-01-01 18:06:00,,0818.8,5.01,0.00,23.0,21.7,00.0,31.8,24.8,14.9,-000.6,0025.32,0020.18,0019.67
2023-01-01 18:07:00,,0818.7,4.97,0.00,23.0,21.7,00.0,31.8,24.8,14.8,-000.6,0025.40,0020.09,0019.58
2023-01-01 18:08:00,,0818.7,4.98,0.00,23.0,21.7,00.0,31.8,24.8,14.8,-000.5,0025.06,0019.97,0019.49
2023-01-01 18:09:00,,0818.8,5.04,0.00,23.0,21.7,00.0,31.8,24.8,14.8,-000.5,0024.95,0019.81,0019.34
2023-01-01 18:10:00,,0818.8,5.00,0.00,23.0,21.7,00.0,31.8,24.8,14.9,-000.4,0024.75,0019.61,0019.17
2023-01-01 18:11:00,,0818.8,5.01,0.00,23.0,21.7,00.0,31.8,24.8,14.9,-000.5,0024.63,0019.44,0019.00
2023-01-01 18:12:00,,0818.8,4.97,0.00,23.0,21.7,00.0,31.8,24.8,14.9,-000.3,0024.44,0019.27,0018.84
2023-01-01 18:13:00,,0818.7,4.97,0.00,23.0,21.7,00.0,31.8,24.7,14.9,0000.2,0023.81,0019.03,0018.61
2023-01-01 18:14:00,,0818.8,4.98,0.00,23.0,21.7,00.0,31.8,24.8,14.8,0000.3,0023.04,0018.72,0018.31
2023-01-01 18:15:00,,0818.8,4.98,0.00,23.0,21.7,00.0,31.8,24.8,14.8,0000.2,0022.56,0018.48,0018.08
2023-01-01 18:16:00,,0818.8,5.03,0.00,23.0,21.7,00.0,31.8,24.8,14.8,0000.2,0022.45,0018.25,0017.88
2023-01-01 18:17:00,,0818.8,5.03,0.00,23.0,21.7,00.0,31.8,24.7,14.8,-000.2,0022.01,0017.99,0017.61
2023-01-01 18:18:00,,0818.8,5.02,0.00,23.0,21.7,00.0,31.8,24.7,14.8,-000.4,0021.50,0017.71,0017.33
2023-01-01 18:19:00,,0818.8,4.97,0.00,23.0,21.7,00.0,31.8,24.7,14.8,-000.5,0021.30,0017.42,0017.01
2023-01-01 18:20:00,,0818.8,5.02,0.00,23.0,21.8,00.0,31.8,24.7,14.7,-000.5,0020.97,0017.13,0016.71
2023-01-01 18:21:00,,0818.8,5.05,0.00,23.0,21.8,00.0,31.8,24.8,14.7,-000.8,0020.87,0016.90,0016.44
2023-01-01 18:22:00,,0818.8,5.01,0.00,23.0,21.8,00.0,31.8,24.8,14.7,-000.8,0020.71,0016.70,0016.21
2023-01-01 18:23:00,,0818.9,4.94,0.00,23.1,21.8,00.0,31.8,24.8,14.8,-001.2,0020.51,0016.46,0015.98
2023-01-01 18:24:00,,0818.9,5.05,0.00,23.1,21.8,00.0,31.8,24.8,14.8,-001.4,0020.41,0016.29,0015.79
2023-01-01 18:25:00,,0818.9,5.03,0.00,23.1,21.8,00.0,31.8,24.8,14.8,-001.5,0020.23,0016.17,0015.67
2023-01-01 18:26:00,,0818.9,4.97,0.00,23.1,21.8,00.0,31.9,24.8,14.7,-001.5,0020.11,0015.99,0015.49
2023-01-01 18:27:00,,0818.9,4.98,0.00,23.1,21.8,00.0,31.9,24.8,14.7,-001.0,0019.99,0015.84,0015.33
2023-01-01 18:28:00,,0818.8,4.98,0.00,23.1,21.8,00.0,31.9,24.8,14.7,-000.6,0020.09,0015.82,0015.30
2023-01-01 18:29:00,,0818.9,4.97,0.00,23.1,21.8,00.0,31.9,24.8,14.7,-000.2,0020.65,0015.83,0015.31
2023-01-01 18:30:00,,0818.8,5.06,0.00,23.1,21.8,00.0,31.9,24.8,14.7,0000.0,0020.62,0015.85,0015.36
2023-01-01 18:31:00,,0818.8,4.99,0.00,23.1,21.9,00.0,31.9,24.9,14.8,0000.0,0020.71,0015.98,0015.48
2023-01-01 18:32:00,,0818.8,4.99,0.00,23.1,21.9,00.0,31.9,24.8,14.9,0000.1,0020.94,0016.20,0015.69
2023-01-01 18:33:00,,0818.8,4.96,0.00,23.1,21.9,00.0,31.9,24.8,14.9,0000.1,0021.15,0016.44,0015.94
2023-01-01 18:34:00,,0818.8,4.99,0.00,23.1,21.9,00.0,31.9,24.9,14.9,0000.5,0021.40,0016.75,0016.22
2023-01-01 18:35:00,,0818.7,5.05,0.00,23.1,21.9,00.0,31.9,24.9,14.9,0000.2,0021.62,0017.00,0016.50
2023-01-01 18:36:00,,0818.8,4.98,0.00,23.1,21.9,00.0,31.9,24.9,14.9,0000.2,0021.90,0017.29,0016.79
2023-01-01 18:37:00,,0818.7,4.97,0.00,23.2,21.9,00.0,31.9,24.9,14.8,0000.4,0022.24,0017.63,0017.13
2023-01-01 18:38:00,,0818.7,5.04,0.00,23.2,21.9,00.0,31.9,24.9,14.8,-000.2,0022.36,0017.88,0017.38
2023-01-01 18:39:00,,0818.6,5.05,0.00,23.2,21.9,00.0,31.9,24.9,14.8,-000.5,0022.55,0018.11,0017.61
2023-01-01 18:40:00,,0818.5,4.98,0.00,23.2,21.9,00.0,31.9,24.9,14.8,-000.7,0022.17,0018.25,0017.76
2023-01-01 18:41:00,,0818.5,5.00,0.00,23.2,21.9,00.0,32.0,24.9,14.8,-000.9,0022.14,0018.41,0017.92
2023-01-01 18:42:00,,0818.5,5.03,0.00,23.2,22.0,00.0,32.0,24.9,14.9,-001.2,0022.30,0018.54,0018.05
2023-01-01 18:43:00,,0818.5,5.01,0.00,23.2,22.0,00.0,32.0,24.9,14.9,-001.0,0022.18,0018.54,0018.10
2023-01-01 18:44:00,,0818.4,5.01,0.00,23.2,22.0,00.0,32.0,24.9,14.8,-000.9,0022.10,0018.51,0018.10
2023-01-01 18:45:00,,0818.4,4.96,0.00,23.2,22.0,00.0,32.0,24.9,14.8,-000.7,0022.03,0018.49,0018.10
2023-01-01 18:46:00,,0818.4,5.03,0.00,23.2,22.0,00.0,32.0,24.9,14.8,-000.6,0022.00,0018.53,0018.14
2023-01-01 18:47:00,,0818.4,5.00,0.00,23.2,22.0,00.0,32.0,24.9,14.7,-000.8,0021.97,0018.55,0018.18
2023-01-01 18:48:00,,0818.4,5.01,0.00,23.3,22.1,00.0,32.0,25.0,14.7,-000.8,0021.91,0018.54,0018.19
2023-01-01 18:49:00,,0818.3,5.09,0.00,23.3,22.1,00.0,32.0,25.0,14.6,-000.6,0021.99,0018.61,0018.25
2023-01-01 18:50:00,,0818.3,4.99,0.00,23.3,22.1,00.0,32.0,25.0,14.6,-000.5,0022.12,0018.74,0018.35
2023-01-01 18:51:00,,0818.3,4.99,0.00,23.3,22.1,00.0,32.0,25.0,14.6,-000.6,0022.31,0018.85,0018.45
2023-01-01 18:52:00,,0818.4,5.00,0.00,23.3,22.1,00.0,32.1,25.0,14.6,-000.5,0022.47,0018.99,0018.57
2023-01-01 18:53:00,,0818.4,5.01,0.00,23.3,22.2,00.0,32.1,25.1,14.6,-000.3,0022.50,0019.08,0018.68
2023-01-01 18:54:00,,0818.4,5.03,0.00,23.3,22.2,00.0,32.1,25.1,14.6,-000.5,0022.61,0019.15,0018.75
2023-01-01 18:55:00,,0818.4,4.98,0.00,23.3,22.2,00.0,32.1,25.1,14.6,-000.7,0022.70,0019.21,0018.79
2023-01-01 18:56:00,,0818.4,4.99,0.00,23.4,22.2,00.0,32.1,25.1,14.6,-001.0,0022.74,0019.23,0018.81
2023-01-01 18:57:00,,0818.4,5.02,0.00,23.4,22.2,00.0,32.1,25.1,14.6,-001.1,0022.72,0019.21,0018.79
2023-01-01 18:58:00,,0818.4,5.03,0.00,23.4,22.2,00.0,32.1,25.1,14.6,-001.0,0022.70,0019.19,0018.77
2023-01-01 18:59:00,,0818.4,5.00,0.00,23.4,22.3,00.0,32.1,25.1,14.6,-001.4,0022.83,0019.22,0018.79
